N0KTA-2 Weather Reports


Display with metric or nautical units.
time (UTC)temp
F
wind
direction
speed
MPH
gust
MPH
rain 1hr
in
rain 24hr
in
rain mn
in
humidity
%
barometer
mb
20260902163822 94 276 1.0 2.0 0.00 0.00 0.00 48 1009.4
20260902162822 93 196 3.0 7.0 0.00 0.00 0.00 49 1009.8
20260902161821 92 272 1.0 3.0 0.00 0.00 0.00 49 1009.8
20260902160822 92 254 1.0 2.0 0.00 0.00 0.00 52 1009.8
20260902155821 91 283 1.0 3.0 0.00 0.00 0.00 52 1010.0
20260902154822 91 201 3.0 5.0 0.00 0.00 0.00 52 1010.0
20260902153821 90 198 5.0 6.0 0.00 0.00 0.00 53 1010.0
20260902152822 90 223 0.0 1.0 0.00 0.00 0.00 54 1010.0
20260902151821 89 267 0.0 2.0 0.00 0.00 0.00 55 1010.1
20260902150821 88 272 2.0 10.0 0.00 0.00 0.00 55 1010.0
20260902145821 87 285 1.0 1.0 0.00 0.00 0.00 57 1010.0
20260902144821 87 183 2.0 12.0 0.00 0.00 0.00 59 1010.0
20260902143826 86 206 5.0 12.0 0.00 0.00 0.00 59 1010.0
20260902142823 85 230 3.0 5.0 0.00 0.00 0.00 60 1010.1
20260902141823 84 186 1.0 6.0 0.00 0.00 0.00 62 1010.1
20260902140824 83 179 2.0 2.0 0.00 0.00 0.00 63 1010.2
20260902135823 82 199 2.0 3.0 0.00 0.00 0.00 64 1010.1
20260902134824 81 195 3.0 6.0 0.00 0.00 0.00 65 1010.1
20260902133823 81 188 3.0 6.0 0.00 0.00 0.00 65 1010.1
20260902132822 80 185 3.0 3.0 0.00 0.00 0.00 66 1010.2
20260902131823 79 199 1.0 3.0 0.00 0.00 0.00 68 1010.2
20260902130824 78 179 2.0 3.0 0.00 0.00 0.00 68 1010.2
20260902125823 78 190 3.0 3.0 0.00 0.00 0.00 68 1010.0
20260902124823 77 184 2.0 3.0 0.00 0.00 0.00 68 1009.8
20260902123822 77 191 1.0 2.0 0.00 0.00 0.00 69 1009.7
20260902122824 77 197 1.0 1.0 0.00 0.00 0.00 68 1009.6
20260902121822 77 179 1.0 2.0 0.00 0.00 0.00 68 1009.6
20260902120823 77 193 2.0 3.0 0.00 0.00 0.00 68 1009.6
20260902115822 77 184 1.0 3.0 0.00 0.00 0.00 68 1009.4
20260902114823 77 196 1.0 1.0 0.00 0.00 0.00 67 1009.3
20260902113823 77 191 2.0 2.0 0.00 0.00 0.00 68 1009.0
20260902112822 76 190 2.0 3.0 0.00 0.00 0.00 67 1009.0
20260902111823 76 192 1.0 3.0 0.00 0.00 0.00 67 1009.0
20260902110822 76 183 2.0 3.0 0.00 0.00 0.00 67 1009.0
20260902105823 76 187 2.0 3.0 0.00 0.00 0.00 66 1008.9
20260902104824 77 210 1.0 2.0 0.00 0.00 0.00 67 1008.8
20260902103823 77 212 1.0 1.0 0.00 0.00 0.00 67 1008.8
20260902102822 77 196 1.0 2.0 0.00 0.00 0.00 66 1008.8
20260902101823 77 192 1.0 1.0 0.00 0.00 0.00 66 1008.7
20260902100824 77 219 1.0 1.0 0.00 0.00 0.00 65 1008.7
20260902095823 77 213 0.0 1.0 0.00 0.00 0.00 64 1008.7
20260902094824 78 194 0.0 1.0 0.00 0.00 0.00 64 1008.6
20260902093823 78 197 1.0 2.0 0.00 0.00 0.00 64 1008.6
20260902092824 78 200 1.0 2.0 0.00 0.00 0.00 63 1008.5
20260902091823 78 203 1.0 2.0 0.00 0.00 0.00 63 1008.5
20260902090824 78 210 1.0 2.0 0.00 0.00 0.00 62 1008.4
20260902085823 79 213 1.0 1.0 0.00 0.00 0.00 62 1008.3
20260902084824 79 202 1.0 2.0 0.00 0.00 0.00 61 1008.3
20260902083823 79 217 1.0 1.0 0.00 0.00 0.00 60 1008.2
20260902082824 80 218 0.0 1.0 0.00 0.00 0.00 59 1008.2
20260902081822 80 191 2.0 3.0 0.00 0.00 0.00 59 1008.2
20260902080823 80 195 1.0 3.0 0.00 0.00 0.00 59 1008.2
20260902075822 81 184 2.0 3.0 0.00 0.00 0.00 58 1008.2
20260902074823 81 197 3.0 5.0 0.00 0.00 0.00 57 1008.2
20260902073822 81 209 1.0 2.0 0.00 0.00 0.00 57 1008.2
20260902072823 81 194 2.0 3.0 0.00 0.00 0.00 57 1008.1
20260902071822 81 188 2.0 5.0 0.00 0.00 0.00 57 1008.1
20260902070823 82 201 2.0 3.0 0.00 0.00 0.00 56 1008.1
20260902065823 82 185 3.0 3.0 0.00 0.00 0.00 56 1008.1
20260902064824 82 201 1.0 3.0 0.00 0.00 0.00 56 1008.1
20260902063822 82 196 2.0 3.0 0.00 0.00 0.00 56 1008.1
20260902062823 82 206 2.0 3.0 0.00 0.00 0.00 55 1008.1
20260902061824 82 189 2.0 3.0 0.00 0.00 0.00 55 1008.1
20260902060823 82 194 2.0 3.0 0.00 0.00 0.00 55 1008.1
20260902055824 83 191 2.0 2.0 0.00 0.00 0.00 55 1008.1
20260902054823 83 193 3.0 3.0 0.00 0.00 0.00 54 1008.2
20260902053824 83 181 2.0 3.0 0.00 0.00 0.00 54 1008.1
20260902052823 83 180 2.0 3.0 0.00 0.00 0.00 54 1008.2
20260902051824 83 195 1.0 3.0 0.00 0.00 0.00 53 1008.2
20260902050823 84 202 2.0 3.0 0.00 0.00 0.00 52 1008.2
20260902045823 84 193 3.0 3.0 0.00 0.00 0.00 52 1008.2
20260902044822 84 191 2.0 3.0 0.00 0.00 0.00 51 1008.2
20260902043823 84 183 3.0 3.0 0.00 0.00 0.00 51 1008.2
20260902042822 85 187 2.0 3.0 0.00 0.00 0.00 50 1008.2
20260902041823 85 186 3.0 6.0 0.00 0.00 0.00 50 1008.2
20260902040823 84 188 2.0 5.0 0.00 0.00 0.00 49 1008.2
20260902035822 84 197 2.0 3.0 0.00 0.00 0.00 49 1008.4
20260902034823 84 199 1.0 3.0 0.00 0.00 0.00 48 1008.4
20260902033822 85 196 2.0 3.0 0.00 0.00 0.00 48 1008.3
20260902032824 85 223 1.0 2.0 0.00 0.00 0.00 47 1008.3
20260902031822 85 166 1.0 3.0 0.00 0.00 0.00 46 1008.2
20260902030823 86 178 1.0 2.0 0.00 0.00 0.00 45 1008.2
20260902025823 86 192 1.0 1.0 0.00 0.00 0.00 44 1008.1
20260902024824 87 231 0.0 1.0 0.00 0.00 0.00 44 1007.9
20260902023823 87 197 0.0 2.0 0.00 0.00 0.00 43 1007.9
20260902022824 88 193 2.0 3.0 0.00 0.00 0.00 42 1007.7
20260902021824 88 210 0.0 2.0 0.00 0.00 0.00 42 1007.4
20260902020823 89 191 1.0 3.0 0.00 0.00 0.00 41 1007.3
20260902015822 89 182 1.0 1.0 0.00 0.00 0.00 41 1007.5
20260902014823 89 185 0.0 2.0 0.00 0.00 0.00 40 1007.5
20260902013822 90 194 1.0 3.0 0.00 0.00 0.00 40 1007.3
20260902012822 91 156 1.0 2.0 0.00 0.00 0.00 39 1007.1
20260902011823 92 192 1.0 2.0 0.00 0.00 0.00 38 1007.1
20260902010822 93 175 1.0 3.0 0.00 0.00 0.00 37 1007.1
20260902005824 94 192 1.0 3.0 0.00 0.00 0.00 36 1007.4
20260902004823 94 197 2.0 5.0 0.00 0.00 0.00 36 1007.2
20260902003823 95 199 3.0 5.0 0.00 0.00 0.00 34 1007.3
20260902002823 96 190 2.0 3.0 0.00 0.00 0.00 34 1007.5
20260902001824 96 187 3.0 5.0 0.00 0.00 0.00 33 1007.4
20260902000823 97 186 6.0 8.0 0.00 0.00 0.00 33 1007.4
20260901235823 97 183 3.0 3.0 0.00 0.00 0.00 32 1007.5
20260901234823 98 187 6.0 10.0 0.00 0.00 0.00 32 1007.5
20260901233823 98 198 2.0 6.0 0.00 0.00 0.00 32 1007.5
20260901232823 98 193 5.0 12.0 0.00 0.00 0.00 32 1007.5
20260901231823 98 188 7.0 9.0 0.00 0.00 0.00 31 1007.5
20260901230822 98 213 2.0 5.0 0.00 0.00 0.00 32 1007.4
20260901225823 99 186 6.0 9.0 0.00 0.00 0.00 31 1007.4
20260901224822 99 212 3.0 9.0 0.00 0.00 0.00 31 1007.4
20260901223823 99 200 6.0 10.0 0.00 0.00 0.00 30 1007.4
20260901222823 100 215 6.0 13.0 0.00 0.00 0.00 30 1007.3
20260901221824 100 187 5.0 10.0 0.00 0.00 0.00 30 1007.3
20260901220823 99 189 5.0 6.0 0.00 0.00 0.00 30 1007.4
20260901215822 100 181 7.0 10.0 0.00 0.00 0.00 30 1007.3
20260901214823 100 192 7.0 10.0 0.00 0.00 0.00 29 1007.3
20260901213822 100 194 2.0 5.0 0.00 0.00 0.00 30 1007.4
20260901212824 100 240 3.0 6.0 0.00 0.00 0.00 29 1007.6
20260901211823 100 258 3.0 3.0 0.00 0.00 0.00 29 1007.8
20260901210822 100 229 1.0 6.0 0.00 0.00 0.00 29 1007.8
20260901205823 100 210 3.0 6.0 0.00 0.00 0.00 29 1007.9
20260901204822 100 178 9.0 14.0 0.00 0.00 0.00 29 1008.1
20260901203823 100 194 5.0 6.0 0.00 0.00 0.00 29 1008.3
20260901202823 100 184 6.0 12.0 0.00 0.00 0.00 30 1008.4
20260901201823 100 290 1.0 2.0 0.00 0.00 0.00 30 1008.4
20260901200822 100 269 2.0 10.0 0.00 0.00 0.00 30 1008.5
20260901195822 100 237 1.0 5.0 0.00 0.00 0.00 30 1008.7
20260901194823 99 184 7.0 12.0 0.00 0.00 0.00 30 1008.8
20260901193822 99 289 1.0 2.0 0.00 0.00 0.00 33 1008.8
20260901192824 98 272 1.0 3.0 0.00 0.00 0.00 33 1009.0
20260901191823 98 282 0.0 2.0 0.00 0.00 0.00 33 1009.0
20260901190822 99 282 2.0 7.0 0.00 0.00 0.00 32 1009.3
20260901185822 99 263 2.0 3.0 0.00 0.00 0.00 32 1009.2
20260901184822 99 192 5.0 12.0 0.00 0.00 0.00 32 1009.2
20260901183823 99 200 6.0 12.0 0.00 0.00 0.00 33 1009.3
20260901182823 98 248 2.0 6.0 0.00 0.00 0.00 33 1009.4
20260901181822 97 205 2.0 7.0 0.00 0.00 0.00 35 1009.7
20260901180823 96 263 1.0 3.0 0.00 0.00 0.00 37 1009.9
20260901175823 98 199 6.0 10.0 0.00 0.00 0.00 33 1009.8
20260901174822 98 190 7.0 10.0 0.00 0.00 0.00 34 1009.8
20260901173823 97 262 2.0 6.0 0.00 0.00 0.00 37 1009.9
20260901172822 97 276 2.0 5.0 0.00 0.00 0.00 38 1010.1
20260901171822 97 229 3.0 6.0 0.00 0.00 0.00 37 1010.2
20260901170823 96 276 2.0 2.0 0.00 0.00 0.00 38 1010.3
20260901165822 96 283 1.0 2.0 0.00 0.00 0.00 39 1010.4
20260901164822 96 240 1.0 3.0 0.00 0.00 0.00 40 1010.4